Location: Arcones
(41.1182°N, 3.7238°W)
Time: 12:06:47
(UTC+00:00)

IRIDIUM 106 - Pass Details

Date: 22 March 2026
Orbit: 776 x 780 km, 86.4° (Epoch: 14 April)

Event Time Altitude Azimuth Distance (km) Brightness Sun altitude
Exits shadow 19:10:35 11° 94° (E) 2,293 6.1 -8.6°
Maximum altitude 19:12:11 12° 76° (ENE) 2,196 6.1 -8.9°
Drops below altitude 10° 19:14:04 10° 55° (NE) 2,336 6.4 -9.2°
Sets 19:17:59 0° 25° (NNE) 3,269 7.4 -10.0°
